Location: Zagreb
(45.8150°N, 15.9819°E)
Time: 18:28:59
(UTC+01:00)

STARLINK-1653 - Pass Details

Date: 20 September 2020
Orbit: 378 x 381 km, 53.0° (Epoch: 27 October)

Event Time Altitude Azimuth Distance (km) Brightness Sun altitude
Exits shadow 05:56:42 - 299° (WNW) 1,626 5.6 -8.5°
Reaches altitude 10° 05:57:23 10° 305° (NW) 1,399 5.3 -8.4°
Maximum altitude 05:59:51 21° 358° (N) 922 4.9 -7.9°
Drops below altitude 10° 06:02:20 10° 50° (NE) 1,400 6.8 -7.5°
Sets 06:04:42 0° 68° (ENE) 2,252 8.7 -7.1°
